Clarksburg, WV

2:20 AM EDT on July 21, 2019 (GMT -0400)
Benedum

Weather History for KCKB - May, 2019

Change the Weather History Date:

Friday, May 10, 2019

  Actual Average Record
Temperature  
Mean Temperature 70 °F -  
Max Temperature 78 °F 71 °F 91 °F (1936)
Min Temperature 62 °F 45 °F 23 °F (1947)
Cooling Degree Days 5    
Month to date cooling degree days 44  
Year to date cooling degree days 69  
Growing Degree Days 19 (Base 50)    
Moisture  
Dew Point 60 °F    
Average Humidity 72    
Maximum Humidity 87    
Minimum Humidity 57    
Precipitation  
Precipitation 0.13 in - - ()
Month to date precipitation 0.63  
Year to date precipitation 14.76  
Sea Level Pressure  
Sea Level Pressure 29.98 in    
Wind  
Wind Speed 8 mph (WSW)    
Max Wind Speed 18 mph    
Max Gust Speed 26 mph    
Visibility 9 miles    
Events Rain    
Averages and records for this station are not official NWS values.
T = Trace of Precipitation, MM = Missing Value Source: NWS Daily Summary

Daily Weather History Graph

Daily Weather History Graph

Search for Another Location

Airport or City:

Astronomy

May. 10, 2019 Rise Set
Actual Time 6:12 AM EDT 8:22 PM EDT
Civil Twilight 5:42 AM EDT 8:52 PM EDT
Nautical Twilight 5:06 AM EDT 9:29 PM EDT
Astronomical Twilight 4:26 AM EDT 10:09 PM EDT
Moon 11:10 AM EDT (5/10) 1:14 AM EDT (5/10)
Length of Visible Light 15h 09m
Length of Day
14h 10m
Waxing Crescent, 35% of the Moon is Illuminated
May 10
Waxing Crescent
May 11
First Quarter
May 18
Full
May 26
Last Quarter
Jun 3
New

Hourly Weather History & Observations

Time (EDT) Temp. Dew Point Humidity Pressure Visibility Wind Dir Wind Speed Gust Speed Precip Events Conditions
12:53 AM 66.9 °F 62.1 °F 84% 29.92 in 10.0 mi Calm Calm - N/A   Scattered Clouds
1:53 AM 69.1 °F 61.0 °F 75% 29.91 in 10.0 mi South 4.6 mph - N/A   Overcast
2:53 AM 70.0 °F 57.0 °F 63% 29.88 in 10.0 mi South 5.8 mph - 0.00 in   Overcast
3:53 AM 70.0 °F 55.9 °F 61% 29.89 in 10.0 mi South 5.8 mph - N/A   Overcast
4:53 AM 71.1 °F 55.9 °F 59% 29.89 in 10.0 mi SSW 11.5 mph - N/A   Overcast
5:53 AM 72.0 °F 57.0 °F 59% 29.91 in 10.0 mi SW 15.0 mph - N/A   Overcast
6:53 AM 71.1 °F 57.0 °F 61% 29.93 in 10.0 mi WSW 11.5 mph - N/A   Overcast
7:29 AM 66.0 °F 60.1 °F 81% 29.99 in 2.5 mi WSW 11.5 mph - 0.03 in Rain Light Rain
7:36 AM 66.9 °F 60.1 °F 79% 30.00 in 10.0 mi WSW 11.5 mph - 0.03 in Rain Light Rain
7:53 AM 66.9 °F 61.0 °F 81% 29.97 in 10.0 mi SW 8.1 mph - 0.03 in   Overcast
8:13 AM 66.9 °F 61.0 °F 81% 30.00 in 10.0 mi WSW 8.1 mph - N/A   Mostly Cloudy
8:53 AM 69.1 °F 62.1 °F 78% 29.97 in 10.0 mi SW 6.9 mph - N/A   Overcast
9:53 AM 69.1 °F 62.1 °F 78% 29.98 in 10.0 mi WSW 9.2 mph - N/A   Overcast
10:46 AM 70.0 °F 62.1 °F 76% 30.02 in 10.0 mi SW 11.5 mph - 0.00 in   Overcast
10:53 AM 70.0 °F 62.1 °F 76% 29.99 in 10.0 mi SW 8.1 mph - 0.00 in   Overcast
11:19 AM 72.0 °F 62.1 °F 71% 30.02 in 10.0 mi SW 10.4 mph - N/A   Mostly Cloudy
11:38 AM 69.1 °F 63.0 °F 81% 30.03 in 5.0 mi SSW 10.4 mph - 0.01 in Rain Light Rain
11:53 AM 72.0 °F 64.0 °F 76% 29.99 in 10.0 mi SW 9.2 mph - 0.01 in   Mostly Cloudy
12:53 PM 75.0 °F 63.0 °F 66% 29.97 in 10.0 mi WSW 11.5 mph - N/A   Mostly Cloudy
1:53 PM 73.9 °F 60.1 °F 62% 29.96 in 10.0 mi West 9.2 mph - N/A   Overcast
2:53 PM 73.9 °F 59.0 °F 59% 29.96 in 10.0 mi West 6.9 mph 16.1 mph N/A   Mostly Cloudy
3:37 PM 71.1 °F 64.0 °F 78% 30.01 in 0.5 mi NW 9.2 mph - 0.02 in Rain Rain
3:53 PM 69.1 °F 64.0 °F 84% 29.99 in 0.5 mi West 10.4 mph - 0.08 in Rain Light Rain
3:55 PM 69.1 °F 64.0 °F 84% 30.02 in 2.0 mi West 10.4 mph - 0.01 in Rain Light Rain
4:30 PM 70.0 °F 63.0 °F 78% 30.01 in 10.0 mi West 3.5 mph - 0.01 in   Overcast
4:53 PM 71.1 °F 63.0 °F 75% 29.98 in 10.0 mi West 5.8 mph - 0.01 in   Mostly Cloudy
5:53 PM 73.0 °F 62.1 °F 68% 29.98 in 10.0 mi WNW 8.1 mph - 0.00 in   Scattered Clouds
6:53 PM 72.0 °F 60.1 °F 66% 29.98 in 10.0 mi NW 8.1 mph - N/A   Scattered Clouds
7:53 PM 70.0 °F 59.0 °F 68% 30.00 in 10.0 mi NW 9.2 mph - N/A   Overcast
8:53 PM 66.9 °F 57.0 °F 70% 30.03 in 10.0 mi NW 8.1 mph - N/A   Mostly Cloudy
9:17 PM 66.0 °F 57.0 °F 73% 30.08 in 10.0 mi WNW 12.7 mph 17.3 mph N/A   Overcast
9:53 PM 64.9 °F 55.0 °F 70% 30.04 in 10.0 mi West 10.4 mph - N/A   Overcast
10:53 PM 63.0 °F 54.0 °F 72% 30.06 in 10.0 mi West 5.8 mph - N/A   Overcast
11:53 PM 62.1 °F 53.1 °F 72% 30.05 in 10.0 mi West 4.6 mph - N/A   Overcast